Weather in Galway

Ireland     53°17′06″N   9°02′03″W
temp.,
°C
wind,
m/s
gust,
m/s
humid.,
%
clouds,
%
prec.,
mm/h
press.,
hPa
HPBL,
m
1 august, sun
sun101:00+11n488317 0.0 1013281
04:00+14n5767100 0.0 1013919
07:00+13n5768100 0.0 1014856
10:00+13n5767100 0.0 10151191
13:00+15n5663100 0.1 10161332
16:00+15n566349 0.0 10171098
19:00+16n45612 0.0 10161099
22:00+12n477654 0.0 1018294
2 august, mon
mon201:00+11n2386100 0.0 1018104
04:00+11sse1184100 0.0 101761
07:00+13s2284100 0.1 1017119
10:00+14wsw2486100 0.5 1016406
13:00+14sw4691100 2.8 1016434
16:00+15sw458756 2.3 1015566
19:00+16w458093 3.9 1014507
22:00+15wsw338599 0.4 1014192
3 august, tue
tue301:00+13sw1186100 0.4 1014144
04:00+12s1290100 0.0 101367
07:00+13s2291100 0.0 101285
10:00+15s2285100 0.0 1012374
13:00+17sw3480100 0.8 1012627
16:00+17sw688793 0.7 1012638
19:00+17w578369 1.2 1012587
22:00+15wsw359395 0.2 1013193
4 august, wed
wed401:00+14wsw349339 0.8 1013171
04:00+15wsw359191 0.0 1012255
07:00+14ssw249118 0.0 1012253
10:00+16sw4580100 0.1 1011729
13:00+18sw5673100 0.3 1010774
16:00+17sw6878100 0.8 1008507
19:00+15s31086100 1.3 1005485
22:00+15s101687100 0.3 10011068
5 august, thu
thu501:00+16ssw9148454 0.6 9981051
04:00+14s111889100 0.9 9931159
07:00+15sw12178736 4.9 9901002
10:00+16wsw151991100 1.9 9891056
13:00+16w14198739 2.4 9921208
16:00+18w1116745 0.4 9961217
19:00+17w10148366 0.6 9981069
22:00+15w10148679 0.2 1000881